Logan, UT

2:25 PM MST on December 12, 2019 (GMT -0700)
Logan-Cache

Weather History for KLGU - October, 2019

Change the Weather History Date:

Friday, October 4, 2019

  Actual Average Record
Temperature  
Mean Temperature 44 °F -  
Max Temperature 55 °F 68 °F 85 °F (1987)
Min Temperature 33 °F 36 °F 25 °F (1966)
Degree Days  
Heating Degree Days 21    
Moisture  
Dew Point 34 °F    
Average Humidity 74    
Maximum Humidity 89    
Minimum Humidity 36    
Precipitation  
Precipitation 0.06 in - - ()
Sea Level Pressure  
Sea Level Pressure 30.04 in    
Wind  
Wind Speed 5 mph ()    
Max Wind Speed 29 mph    
Max Gust Speed 44 mph    
Visibility 9.2 miles    
Events Rain    
Averages and records for this station are not official NWS values.
T = Trace of Precipitation, MM = Missing Value Source: Averaged Metar Reports

Daily Weather History Graph

Daily Weather History Graph

Search for Another Location

Airport or City:

Astronomy

Oct. 04, 2019 Rise Set
Actual Time 7:27 AM MDT 7:04 PM MDT
Civil Twilight 6:59 AM MDT 7:31 PM MDT
Nautical Twilight 6:27 AM MDT 8:04 PM MDT
Astronomical Twilight 5:54 AM MDT 8:36 PM MDT
Moon 2:07 PM MDT (10/4) 11:31 PM MDT (10/4)
Length of Visible Light 12h 32m
Length of Day
11h 36m
Waxing Crescent, 40% of the Moon is Illuminated
Oct 4
Waxing Crescent
Oct 5
First Quarter
Oct 13
Full
Oct 21
Last Quarter
Oct 27
New

Hourly Weather History & Observations

Time (MDT) Temp. Windchill Dew Point Humidity Pressure Visibility Wind Dir Wind Speed Gust Speed Precip Events Conditions
12:51 AM 41.0 °F 38.0 °F 34.0 °F 76% 29.86 in 10.0 mi SSE 4.6 mph - N/A   Clear
1:51 AM 37.0 °F 34.5 °F 32.0 °F 82% 29.86 in 10.0 mi WNW 3.5 mph - N/A   Clear
2:51 AM 37.9 °F - 33.1 °F 83% 29.86 in 10.0 mi Calm Calm - N/A   Clear
3:51 AM 39.0 °F - 33.1 °F 79% 29.83 in 10.0 mi Calm Calm - N/A   Clear
4:51 AM 36.0 °F - 32.0 °F 86% 29.83 in 10.0 mi Calm Calm - N/A   Clear
5:51 AM 33.1 °F - 28.9 °F 85% 29.84 in 10.0 mi Calm Calm - N/A   Clear
6:51 AM 33.1 °F - 30.0 °F 89% 29.87 in 10.0 mi Calm Calm - N/A   Clear
7:51 AM 34.0 °F 31.0 °F 30.9 °F 89% 29.89 in 9.0 mi WSW 3.5 mph - N/A   Clear
8:51 AM 39.0 °F 35.7 °F 36.0 °F 89% 29.89 in 10.0 mi West 4.6 mph - N/A   Clear
9:51 AM 44.1 °F - 36.0 °F 73% 29.89 in 10.0 mi Calm Calm - N/A   Clear
10:51 AM 48.0 °F - 36.0 °F 63% 29.91 in 10.0 mi Calm Calm - N/A   Clear
11:51 AM 48.9 °F - 34.0 °F 56% 29.93 in 10.0 mi NNW 4.6 mph - N/A   Overcast
12:51 PM 52.0 °F - 35.1 °F 53% 29.99 in 10.0 mi West 9.2 mph - 0.00 in Rain Light Rain
2:51 PM 55.9 °F - 28.9 °F 36% 29.98 in 10.0 mi Variable 6.9 mph 18.4 mph N/A   Mostly Cloudy
3:48 PM 48.2 °F - 37.4 °F 66% 30.08 in 10.0 mi WNW 21.9 mph 26.5 mph 0.00 in Rain Light Rain
3:51 PM 50.0 °F - 39.0 °F 66% 30.06 in 10.0 mi WNW 20.7 mph 26.5 mph 0.00 in Rain Light Rain
4:51 PM 52.0 °F - 33.1 °F 49% 30.11 in 10.0 mi WNW 15.0 mph - 0.00 in   Mostly Cloudy
5:33 PM 41.0 °F 30.0 °F 35.1 °F 79% 30.19 in 1.8 mi West 28.8 mph 43.7 mph 0.04 in Rain Rain
5:40 PM 39.9 °F 33.4 °F 34.0 °F 79% 30.18 in 1.5 mi WSW 10.4 mph 43.7 mph 0.06 in Rain Light Rain
5:43 PM 41.0 °F 35.8 °F 34.0 °F 76% 30.18 in 4.0 mi SW 8.1 mph - 0.06 in Rain Light Rain
5:51 PM 43.0 °F 40.3 °F 37.0 °F 80% 30.19 in 10.0 mi SSW 4.6 mph - 0.06 in   Mostly Cloudy
5:57 PM 43.0 °F - 36.0 °F 76% 30.18 in 10.0 mi Calm Calm - N/A   Mostly Cloudy
6:51 PM 44.1 °F 41.5 °F 34.0 °F 68% 30.20 in 10.0 mi SE 4.6 mph - N/A   Clear
7:51 PM 39.9 °F 36.7 °F 35.1 °F 83% 30.25 in 10.0 mi East 4.6 mph - N/A   Clear
8:51 PM 41.0 °F 39.0 °F 33.1 °F 73% 30.25 in 10.0 mi ESE 3.5 mph - N/A   Clear
9:51 PM 41.0 °F 36.4 °F 33.1 °F 73% 30.27 in 10.0 mi SSW 6.9 mph - N/A   Mostly Cloudy
10:51 PM 39.0 °F - 32.0 °F 76% 30.28 in 10.0 mi Calm Calm - N/A   Clear
11:51 PM 37.9 °F 34.4 °F 32.0 °F 79% 30.30 in 10.0 mi East 4.6 mph - N/A   Clear